Year,Month,Day,Hour,Minute,Value (Times are PST for temperature in C)
2016,05,02,00,00,12.80
2016,05,02,00,01,12.80
2016,05,02,00,02,12.80
2016,05,02,00,03,12.80
2016,05,02,00,04,12.80
2016,05,02,00,05,12.80
2016,05,02,00,06,12.80
2016,05,02,00,07,12.80
2016,05,02,00,08,12.80
2016,05,02,00,09,12.80
2016,05,02,00,10,12.80
2016,05,02,00,11,12.80
2016,05,02,00,12,12.80
2016,05,02,00,13,12.70
2016,05,02,00,14,12.70
2016,05,02,00,15,12.70
2016,05,02,00,16,12.60
2016,05,02,00,17,12.60
2016,05,02,00,18,12.60
2016,05,02,00,19,12.50
2016,05,02,00,20,12.50
2016,05,02,00,21,12.50
2016,05,02,00,22,12.50
2016,05,02,00,23,12.50
2016,05,02,00,24,12.40
2016,05,02,00,25,12.40
2016,05,02,00,26,12.40
2016,05,02,00,27,12.40
2016,05,02,00,28,12.40
2016,05,02,00,29,12.30
2016,05,02,00,30,12.30
2016,05,02,00,31,12.30
2016,05,02,00,32,12.30
2016,05,02,00,33,12.30
2016,05,02,00,34,12.30
2016,05,02,00,35,12.30
2016,05,02,00,36,12.20
2016,05,02,00,37,12.20
2016,05,02,00,38,12.20
2016,05,02,00,39,12.20
2016,05,02,00,40,12.20
2016,05,02,00,41,12.10
2016,05,02,00,42,12.10
2016,05,02,00,43,12.10
2016,05,02,00,44,12.00
2016,05,02,00,45,12.00
2016,05,02,00,46,12.00
2016,05,02,00,47,11.90
2016,05,02,00,48,11.90
2016,05,02,00,49,11.90
2016,05,02,00,50,11.90
2016,05,02,00,51,11.80
2016,05,02,00,52,11.80
2016,05,02,00,53,11.80
2016,05,02,00,54,11.80
2016,05,02,00,55,11.80
2016,05,02,00,56,11.80
2016,05,02,00,57,11.80
2016,05,02,00,58,11.80
2016,05,02,00,59,11.80
2016,05,02,01,00,11.80
2016,05,02,01,01,11.80
2016,05,02,01,02,11.80
2016,05,02,01,03,11.70
2016,05,02,01,04,11.70
2016,05,02,01,05,11.70
2016,05,02,01,06,11.70
2016,05,02,01,07,11.60
2016,05,02,01,08,11.60
2016,05,02,01,09,11.60
2016,05,02,01,10,11.60
2016,05,02,01,11,11.60
2016,05,02,01,12,11.60
2016,05,02,01,13,11.60
2016,05,02,01,14,11.60
2016,05,02,01,15,11.60
2016,05,02,01,16,11.60
2016,05,02,01,17,11.60
2016,05,02,01,18,11.50
2016,05,02,01,19,11.40
2016,05,02,01,20,11.40
2016,05,02,01,21,11.40
2016,05,02,01,22,11.40
2016,05,02,01,23,11.40
2016,05,02,01,24,11.40
2016,05,02,01,25,11.40
2016,05,02,01,26,11.40
2016,05,02,01,27,11.40
2016,05,02,01,28,11.40
2016,05,02,01,29,11.40
2016,05,02,01,30,11.40
2016,05,02,01,31,11.40
2016,05,02,01,32,11.40
2016,05,02,01,33,11.40
2016,05,02,01,34,11.30
2016,05,02,01,35,11.30
2016,05,02,01,36,11.30
2016,05,02,01,37,11.30
2016,05,02,01,38,11.30
2016,05,02,01,39,11.30
2016,05,02,01,40,11.30
2016,05,02,01,41,11.30
2016,05,02,01,42,11.30
2016,05,02,01,43,11.30
2016,05,02,01,44,11.30
2016,05,02,01,45,11.30
2016,05,02,01,46,11.30
2016,05,02,01,47,11.30
2016,05,02,01,48,11.30
2016,05,02,01,49,11.30
2016,05,02,01,50,11.30
2016,05,02,01,51,11.30
2016,05,02,01,52,11.30
2016,05,02,01,53,11.30
2016,05,02,01,54,11.40
2016,05,02,01,55,11.40
2016,05,02,01,56,11.40
2016,05,02,01,57,11.40
2016,05,02,01,58,11.40
2016,05,02,01,59,11.40
2016,05,02,02,00,11.40
2016,05,02,02,01,11.40
2016,05,02,02,02,11.40
2016,05,02,02,03,11.40
2016,05,02,02,04,11.30
2016,05,02,02,05,11.30
2016,05,02,02,06,11.30
2016,05,02,02,07,11.30
2016,05,02,02,08,11.20
2016,05,02,02,09,11.20
2016,05,02,02,10,11.20
2016,05,02,02,11,11.20
2016,05,02,02,12,11.20
2016,05,02,02,13,11.10
2016,05,02,02,14,11.10
2016,05,02,02,15,11.10
2016,05,02,02,16,11.10
2016,05,02,02,17,11.10
2016,05,02,02,18,11.10
2016,05,02,02,19,11.10
2016,05,02,02,20,11.00
2016,05,02,02,21,10.90
2016,05,02,02,22,10.90
2016,05,02,02,23,10.90
2016,05,02,02,24,10.90
2016,05,02,02,25,10.90
2016,05,02,02,26,10.90
2016,05,02,02,27,10.90
2016,05,02,02,28,10.90
2016,05,02,02,29,10.90
2016,05,02,02,30,10.90
2016,05,02,02,31,11.00
2016,05,02,02,32,11.10
2016,05,02,02,33,11.10
2016,05,02,02,34,11.10
2016,05,02,02,35,11.10
2016,05,02,02,36,11.10
2016,05,02,02,37,11.10
2016,05,02,02,38,11.10
2016,05,02,02,39,11.10
2016,05,02,02,40,11.10
2016,05,02,02,41,11.10
2016,05,02,02,42,11.10
2016,05,02,02,43,11.10
2016,05,02,02,44,11.10
2016,05,02,02,45,11.10
2016,05,02,02,46,11.10
2016,05,02,02,47,11.10
2016,05,02,02,48,11.10
2016,05,02,02,49,11.10
2016,05,02,02,50,11.10
2016,05,02,02,51,11.10
2016,05,02,02,52,11.10
2016,05,02,02,53,11.10
2016,05,02,02,54,11.20
2016,05,02,02,55,11.20
2016,05,02,02,56,11.20
2016,05,02,02,57,11.20
2016,05,02,02,58,11.20
2016,05,02,02,59,11.20
2016,05,02,03,00,11.20
2016,05,02,03,01,11.20
2016,05,02,03,02,11.20
2016,05,02,03,03,11.20
2016,05,02,03,04,11.20
2016,05,02,03,05,11.20
2016,05,02,03,06,11.20
2016,05,02,03,07,11.20
2016,05,02,03,08,11.20
2016,05,02,03,09,11.20
2016,05,02,03,10,11.20
2016,05,02,03,11,11.20
2016,05,02,03,12,11.20
2016,05,02,03,13,11.20
2016,05,02,03,14,11.20
2016,05,02,03,15,11.10
2016,05,02,03,16,11.10
2016,05,02,03,17,11.10
2016,05,02,03,18,11.10
2016,05,02,03,19,11.10
2016,05,02,03,20,11.10
2016,05,02,03,21,11.10
2016,05,02,03,22,11.10
2016,05,02,03,23,11.10
2016,05,02,03,24,11.10
2016,05,02,03,25,11.10
2016,05,02,03,26,11.10
2016,05,02,03,27,11.10
2016,05,02,03,28,11.10
2016,05,02,03,29,11.10
2016,05,02,03,30,10.90
2016,05,02,03,31,10.90
2016,05,02,03,32,10.90
2016,05,02,03,33,10.90
2016,05,02,03,34,10.90
2016,05,02,03,35,10.90
2016,05,02,03,36,10.80
2016,05,02,03,37,10.80
2016,05,02,03,38,10.80
2016,05,02,03,39,10.70
2016,05,02,03,40,10.70
2016,05,02,03,41,10.70
2016,05,02,03,42,10.70
2016,05,02,03,43,10.70
2016,05,02,03,44,10.70
2016,05,02,03,45,10.60
2016,05,02,03,46,10.60
2016,05,02,03,47,10.60
2016,05,02,03,48,10.60
2016,05,02,03,49,10.60
2016,05,02,03,50,10.60
2016,05,02,03,51,10.60
2016,05,02,03,52,10.60
2016,05,02,03,53,10.60
2016,05,02,03,54,10.60
2016,05,02,03,55,10.60
2016,05,02,03,56,10.60
2016,05,02,03,57,10.60
2016,05,02,03,58,10.60
2016,05,02,03,59,10.60
2016,05,02,04,00,10.60
2016,05,02,04,01,10.60
2016,05,02,04,02,10.60
2016,05,02,04,03,10.60
2016,05,02,04,04,10.60
2016,05,02,04,05,10.50
2016,05,02,04,06,10.40
2016,05,02,04,07,10.40
2016,05,02,04,08,10.40
2016,05,02,04,09,10.40
2016,05,02,04,10,10.40
2016,05,02,04,11,10.30
2016,05,02,04,12,10.30
2016,05,02,04,13,10.20
2016,05,02,04,14,10.20
2016,05,02,04,15,10.20
2016,05,02,04,16,10.10
2016,05,02,04,17,10.10
2016,05,02,04,18,10.10
2016,05,02,04,19,10.10
2016,05,02,04,20,10.10
2016,05,02,04,21,10.10
2016,05,02,04,22,10.10
2016,05,02,04,23,10.10
2016,05,02,04,24,10.10
2016,05,02,04,25,10.10
2016,05,02,04,26,10.10
2016,05,02,04,27,10.10
2016,05,02,04,28,10.10
2016,05,02,04,29,10.10
2016,05,02,04,30,10.10
2016,05,02,04,31,10.10
2016,05,02,04,32,10.10
2016,05,02,04,33,10.10
2016,05,02,04,34,10.10
2016,05,02,04,35,10.10
2016,05,02,04,36,10.10
2016,05,02,04,37,10.10
2016,05,02,04,38,10.10
2016,05,02,04,39,10.10
2016,05,02,04,40,10.20
2016,05,02,04,41,10.20
2016,05,02,04,42,10.20
2016,05,02,04,43,10.20
2016,05,02,04,44,10.10
2016,05,02,04,45,10.10
2016,05,02,04,46,10.10
2016,05,02,04,47,10.10
2016,05,02,04,48,10.10
2016,05,02,04,49,10.10
2016,05,02,04,50,10.10
2016,05,02,04,51,10.10
2016,05,02,04,52,10.10
2016,05,02,04,53,10.10
2016,05,02,04,54,10.10
2016,05,02,04,55,10.10
2016,05,02,04,56,10.10
2016,05,02,04,57,10.10
2016,05,02,04,58,10.10
2016,05,02,04,59,10.10
2016,05,02,05,00,10.10
2016,05,02,05,01,10.10
2016,05,02,05,02,10.10
2016,05,02,05,03,10.10
2016,05,02,05,04,10.10
2016,05,02,05,05,10.10
2016,05,02,05,06,10.10
2016,05,02,05,07,10.10
2016,05,02,05,08,10.10
2016,05,02,05,09,10.10
2016,05,02,05,10,10.10
2016,05,02,05,11,10.10
2016,05,02,05,12,10.10
2016,05,02,05,13,10.10
2016,05,02,05,14,10.10
2016,05,02,05,15,10.10
2016,05,02,05,16,10.10
2016,05,02,05,17,10.10
2016,05,02,05,18,10.10
2016,05,02,05,19,10.00
2016,05,02,05,20,9.90
2016,05,02,05,21,9.90
2016,05,02,05,22,9.90
2016,05,02,05,23,9.90
2016,05,02,05,24,9.90
2016,05,02,05,25,9.90
2016,05,02,05,26,9.90
2016,05,02,05,27,9.90
2016,05,02,05,28,9.90
2016,05,02,05,29,9.90
2016,05,02,05,30,9.90
2016,05,02,05,31,9.90
2016,05,02,05,32,9.90
2016,05,02,05,33,9.90
2016,05,02,05,34,9.90
2016,05,02,05,35,9.90
2016,05,02,05,36,9.90
2016,05,02,05,37,9.90
2016,05,02,05,38,9.90
2016,05,02,05,39,9.80
2016,05,02,05,40,9.80
2016,05,02,05,41,9.80
2016,05,02,05,42,9.80
2016,05,02,05,43,9.80
2016,05,02,05,44,9.80
2016,05,02,05,45,9.80
2016,05,02,05,46,9.80
2016,05,02,05,47,9.80
2016,05,02,05,48,9.80
2016,05,02,05,49,9.80
2016,05,02,05,50,9.80
2016,05,02,05,51,9.80
2016,05,02,05,52,9.80
2016,05,02,05,53,9.80
2016,05,02,05,54,9.80
2016,05,02,05,55,9.80
2016,05,02,05,56,9.80
2016,05,02,05,57,9.80
2016,05,02,05,58,9.80
2016,05,02,05,59,9.80
2016,05,02,06,00,9.80
2016,05,02,06,01,9.80
2016,05,02,06,02,9.80
2016,05,02,06,03,9.80
2016,05,02,06,04,9.80
2016,05,02,06,05,9.80
2016,05,02,06,06,9.80
2016,05,02,06,07,9.90
2016,05,02,06,08,9.90
2016,05,02,06,09,9.90
2016,05,02,06,10,9.90
2016,05,02,06,11,9.90
2016,05,02,06,12,9.90
2016,05,02,06,13,9.90
2016,05,02,06,14,9.90
2016,05,02,06,15,9.90
2016,05,02,06,16,9.90
2016,05,02,06,17,10.00
2016,05,02,06,18,10.10
2016,05,02,06,19,10.10
2016,05,02,06,20,10.10
2016,05,02,06,21,10.10
2016,05,02,06,22,10.10
2016,05,02,06,23,10.10
2016,05,02,06,24,10.10
2016,05,02,06,25,10.10
2016,05,02,06,26,10.20
2016,05,02,06,27,10.20
2016,05,02,06,28,10.30
2016,05,02,06,29,10.30
2016,05,02,06,30,10.30
2016,05,02,06,31,10.40
2016,05,02,06,32,10.40
2016,05,02,06,33,10.40
2016,05,02,06,34,10.40
2016,05,02,06,35,10.40
2016,05,02,06,36,10.40
2016,05,02,06,37,10.40
2016,05,02,06,38,10.50
2016,05,02,06,39,10.60
2016,05,02,06,40,10.60
2016,05,02,06,41,10.70
2016,05,02,06,42,10.80
2016,05,02,06,43,10.90
2016,05,02,06,44,10.90
2016,05,02,06,45,10.90
2016,05,02,06,46,10.90
2016,05,02,06,47,11.00
2016,05,02,06,48,11.10
2016,05,02,06,49,11.10
2016,05,02,06,50,11.10
2016,05,02,06,51,11.10
2016,05,02,06,52,11.10
2016,05,02,06,53,11.10
2016,05,02,06,54,11.20
2016,05,02,06,55,11.20
2016,05,02,06,56,11.30
2016,05,02,06,57,11.40
2016,05,02,06,58,11.40
2016,05,02,06,59,11.60
2016,05,02,07,00,11.70
2016,05,02,07,01,11.80
2016,05,02,07,02,12.00
2016,05,02,07,03,12.10
2016,05,02,07,04,12.20
2016,05,02,07,05,12.30
2016,05,02,07,06,12.30
2016,05,02,07,07,12.40
2016,05,02,07,08,12.40
2016,05,02,07,09,12.50
2016,05,02,07,10,12.60
2016,05,02,07,11,12.70
2016,05,02,07,12,12.80
2016,05,02,07,13,12.90
2016,05,02,07,14,13.00
2016,05,02,07,15,13.10
2016,05,02,07,16,13.30
2016,05,02,07,17,13.50
2016,05,02,07,18,13.60
2016,05,02,07,19,13.70
2016,05,02,07,20,13.90
2016,05,02,07,21,14.00
2016,05,02,07,22,14.10
2016,05,02,07,23,14.20
2016,05,02,07,24,14.20
2016,05,02,07,25,14.30
2016,05,02,07,26,14.40
2016,05,02,07,27,14.50
2016,05,02,07,28,14.50
2016,05,02,07,29,14.60
2016,05,02,07,30,14.60
2016,05,02,07,31,14.70
2016,05,02,07,32,14.70
2016,05,02,07,33,14.80
2016,05,02,07,34,14.80
2016,05,02,07,35,14.80
2016,05,02,07,36,14.90
2016,05,02,07,37,15.00
2016,05,02,07,38,15.00
2016,05,02,07,39,15.10
2016,05,02,07,40,15.10
2016,05,02,07,41,15.20
2016,05,02,07,42,15.30
2016,05,02,07,43,15.30
2016,05,02,07,44,15.50
2016,05,02,07,45,15.60
2016,05,02,07,46,15.70
2016,05,02,07,47,15.80
2016,05,02,07,48,15.80
2016,05,02,07,49,15.90
2016,05,02,07,50,16.00
2016,05,02,07,51,16.10
2016,05,02,07,52,16.20
2016,05,02,07,53,16.30
2016,05,02,07,54,16.40
2016,05,02,07,55,16.50
2016,05,02,07,56,16.60
2016,05,02,07,57,16.70
2016,05,02,07,58,16.80
2016,05,02,07,59,16.90
2016,05,02,08,00,17.00
2016,05,02,08,01,17.00
2016,05,02,08,02,17.00
2016,05,02,08,03,17.10
2016,05,02,08,04,17.20
2016,05,02,08,05,17.30
2016,05,02,08,06,17.30
2016,05,02,08,07,17.30
2016,05,02,08,08,17.30
2016,05,02,08,09,17.40
2016,05,02,08,10,17.50
2016,05,02,08,11,17.50
2016,05,02,08,12,17.60
2016,05,02,08,13,17.60
2016,05,02,08,14,17.70
2016,05,02,08,15,17.80
2016,05,02,08,16,17.90
2016,05,02,08,17,18.10
2016,05,02,08,18,18.20
2016,05,02,08,19,18.20
2016,05,02,08,20,18.20
2016,05,02,08,21,18.20
2016,05,02,08,22,18.30
2016,05,02,08,23,18.30
2016,05,02,08,24,18.40
2016,05,02,08,25,18.40
2016,05,02,08,26,18.50
2016,05,02,08,27,18.50
2016,05,02,08,28,18.60
2016,05,02,08,29,18.70
2016,05,02,08,30,18.70
2016,05,02,08,31,18.70
2016,05,02,08,32,18.70
2016,05,02,08,33,18.80
2016,05,02,08,34,18.90
2016,05,02,08,35,19.00
2016,05,02,08,36,19.10
2016,05,02,08,37,19.10
2016,05,02,08,38,19.20
2016,05,02,08,39,19.30
2016,05,02,08,40,19.30
2016,05,02,08,41,19.40
2016,05,02,08,42,19.40
2016,05,02,08,43,19.40
2016,05,02,08,44,19.50
2016,05,02,08,45,19.60
2016,05,02,08,46,19.60
2016,05,02,08,47,19.60
2016,05,02,08,48,19.70
2016,05,02,08,49,19.70
2016,05,02,08,50,19.70
2016,05,02,08,51,19.70
2016,05,02,08,52,19.70
2016,05,02,08,53,19.80
2016,05,02,08,54,19.70
2016,05,02,08,55,19.70
2016,05,02,08,56,19.70
2016,05,02,08,57,19.70
2016,05,02,08,58,19.70
2016,05,02,08,59,19.80
2016,05,02,09,00,19.90
2016,05,02,09,01,20.00
2016,05,02,09,02,20.10
2016,05,02,09,03,20.20
2016,05,02,09,04,20.30
2016,05,02,09,05,20.30
2016,05,02,09,06,20.30
2016,05,02,09,07,20.30
2016,05,02,09,08,20.30
2016,05,02,09,09,20.30
2016,05,02,09,10,20.30
2016,05,02,09,11,20.30
2016,05,02,09,12,20.30
2016,05,02,09,13,20.30
2016,05,02,09,14,20.30
2016,05,02,09,15,20.30
2016,05,02,09,16,20.20
2016,05,02,09,17,20.20
2016,05,02,09,18,20.20
2016,05,02,09,19,20.20
2016,05,02,09,20,20.20
2016,05,02,09,21,20.20
2016,05,02,09,22,20.20
2016,05,02,09,23,20.20
2016,05,02,09,24,20.20
2016,05,02,09,25,20.20
2016,05,02,09,26,20.20
2016,05,02,09,27,20.20
2016,05,02,09,28,20.20
2016,05,02,09,29,20.20
2016,05,02,09,30,20.30
2016,05,02,09,31,20.30
2016,05,02,09,32,20.40
2016,05,02,09,33,20.40
2016,05,02,09,34,20.50
2016,05,02,09,35,20.50
2016,05,02,09,36,20.60
2016,05,02,09,37,20.60
2016,05,02,09,38,20.70
2016,05,02,09,39,20.70
2016,05,02,09,40,20.70
2016,05,02,09,41,20.70
2016,05,02,09,42,20.70
2016,05,02,09,43,20.70
2016,05,02,09,44,20.80
2016,05,02,09,45,20.80
2016,05,02,09,46,20.80
2016,05,02,09,47,20.80
2016,05,02,09,48,20.90
2016,05,02,09,49,20.90
2016,05,02,09,50,20.90
2016,05,02,09,51,21.00
2016,05,02,09,52,21.10
2016,05,02,09,53,21.20
2016,05,02,09,54,21.30
2016,05,02,09,55,21.30
2016,05,02,09,56,21.40
2016,05,02,09,57,21.40
2016,05,02,09,58,21.40
2016,05,02,09,59,21.50
2016,05,02,10,00,21.60
2016,05,02,10,01,21.60
2016,05,02,10,02,21.60
2016,05,02,10,03,21.60
2016,05,02,10,04,21.70
2016,05,02,10,05,21.70
2016,05,02,10,06,21.80
2016,05,02,10,07,21.80
2016,05,02,10,08,21.90
2016,05,02,10,09,21.90
2016,05,02,10,10,22.00
2016,05,02,10,11,22.00
2016,05,02,10,12,22.10
2016,05,02,10,13,22.10
2016,05,02,10,14,22.20
2016,05,02,10,15,22.20
2016,05,02,10,16,22.30
2016,05,02,10,17,22.30
2016,05,02,10,18,22.30
2016,05,02,10,19,22.40
2016,05,02,10,20,22.50
2016,05,02,10,21,22.50
2016,05,02,10,22,22.60
2016,05,02,10,23,22.60
2016,05,02,10,24,22.60
2016,05,02,10,25,22.60
2016,05,02,10,26,22.70
2016,05,02,10,27,22.70
2016,05,02,10,28,22.70
2016,05,02,10,29,22.70
2016,05,02,10,30,22.70
2016,05,02,10,31,22.80
2016,05,02,10,32,22.80
2016,05,02,10,33,22.80
2016,05,02,10,34,22.90
2016,05,02,10,35,22.90
2016,05,02,10,36,22.90
2016,05,02,10,37,22.80
2016,05,02,10,38,22.80
2016,05,02,10,39,22.80
2016,05,02,10,40,22.80
2016,05,02,10,41,22.90
2016,05,02,10,42,22.90
2016,05,02,10,43,22.90
2016,05,02,10,44,23.00
2016,05,02,10,45,23.10
2016,05,02,10,46,23.10
2016,05,02,10,47,23.20
2016,05,02,10,48,23.30
2016,05,02,10,49,23.30
2016,05,02,10,50,23.40
2016,05,02,10,51,23.50
2016,05,02,10,52,23.60
2016,05,02,10,53,23.70
2016,05,02,10,54,23.70
2016,05,02,10,55,23.70
2016,05,02,10,56,23.70
2016,05,02,10,57,23.70
2016,05,02,10,58,23.70
2016,05,02,10,59,23.70
2016,05,02,11,00,23.70
2016,05,02,11,01,23.70
2016,05,02,11,02,23.70
2016,05,02,11,03,23.80
2016,05,02,11,04,23.80
2016,05,02,11,05,23.90
2016,05,02,11,06,23.90
2016,05,02,11,07,24.00
2016,05,02,11,08,24.10
2016,05,02,11,09,24.10
2016,05,02,11,10,24.10
2016,05,02,11,11,24.20
2016,05,02,11,12,24.20
2016,05,02,11,13,24.10
2016,05,02,11,14,24.10
2016,05,02,11,15,24.20
2016,05,02,11,16,24.30
2016,05,02,11,17,24.30
2016,05,02,11,18,24.40
2016,05,02,11,19,24.40
2016,05,02,11,20,24.40
2016,05,02,11,21,24.50
2016,05,02,11,22,24.50
2016,05,02,11,23,24.60
2016,05,02,11,24,24.60
2016,05,02,11,25,24.70
2016,05,02,11,26,24.70
2016,05,02,11,27,24.70
2016,05,02,11,28,24.70
2016,05,02,11,29,24.70
2016,05,02,11,30,24.60
2016,05,02,11,31,24.50
2016,05,02,11,32,24.30
2016,05,02,11,33,24.20
2016,05,02,11,34,24.20
2016,05,02,11,35,24.30
2016,05,02,11,36,24.40
2016,05,02,11,37,24.40
2016,05,02,11,38,24.40
2016,05,02,11,39,24.40
2016,05,02,11,40,24.40
2016,05,02,11,41,24.40
2016,05,02,11,42,24.40
2016,05,02,11,43,24.40
2016,05,02,11,44,24.30
2016,05,02,11,45,24.30
2016,05,02,11,46,24.20
2016,05,02,11,47,24.20
2016,05,02,11,48,24.20
2016,05,02,11,49,24.20
2016,05,02,11,50,24.30
2016,05,02,11,51,24.30
2016,05,02,11,52,24.40
2016,05,02,11,53,24.50
2016,05,02,11,54,24.50
2016,05,02,11,55,24.50
2016,05,02,11,56,24.50
2016,05,02,11,57,24.50
2016,05,02,11,58,24.50
2016,05,02,11,59,24.50
2016,05,02,12,00,24.60
2016,05,02,12,01,24.70
2016,05,02,12,02,24.70
2016,05,02,12,03,24.80
2016,05,02,12,04,24.90
2016,05,02,12,05,25.00
2016,05,02,12,06,25.00
2016,05,02,12,07,25.10
2016,05,02,12,08,25.10
2016,05,02,12,09,25.00
2016,05,02,12,10,25.10
2016,05,02,12,11,25.10
2016,05,02,12,12,25.20
2016,05,02,12,13,25.20
2016,05,02,12,14,25.20
2016,05,02,12,15,25.30
2016,05,02,12,16,25.30
2016,05,02,12,17,25.40
2016,05,02,12,18,25.40
2016,05,02,12,19,25.40
2016,05,02,12,20,25.40
2016,05,02,12,21,25.50
2016,05,02,12,22,25.50
2016,05,02,12,23,25.50
2016,05,02,12,24,25.60
2016,05,02,12,25,25.60
2016,05,02,12,26,25.60
2016,05,02,12,27,25.70
2016,05,02,12,28,25.70
2016,05,02,12,29,25.80
2016,05,02,12,30,25.80
2016,05,02,12,31,25.80
2016,05,02,12,32,25.80
2016,05,02,12,33,25.80
2016,05,02,12,34,25.80
2016,05,02,12,35,25.60
2016,05,02,12,36,25.50
2016,05,02,12,37,25.50
2016,05,02,12,38,25.50
2016,05,02,12,39,25.50
2016,05,02,12,40,25.60
2016,05,02,12,41,25.70
2016,05,02,12,42,25.70
2016,05,02,12,43,25.80
2016,05,02,12,44,25.90
2016,05,02,12,45,25.90
2016,05,02,12,46,25.90
2016,05,02,12,47,25.90
2016,05,02,12,48,26.00
2016,05,02,12,49,26.00
2016,05,02,12,50,26.00
2016,05,02,12,51,26.00
2016,05,02,12,52,26.10
2016,05,02,12,53,26.10
2016,05,02,12,54,26.20
2016,05,02,12,55,26.30
2016,05,02,12,56,26.30
2016,05,02,12,57,26.30
2016,05,02,12,58,26.30
2016,05,02,12,59,26.40
2016,05,02,13,00,26.40
2016,05,02,13,01,26.50
2016,05,02,13,02,26.60
2016,05,02,13,03,26.60
2016,05,02,13,04,26.60
2016,05,02,13,05,26.70
2016,05,02,13,06,26.70
2016,05,02,13,07,26.70
2016,05,02,13,08,26.70
2016,05,02,13,09,26.70
2016,05,02,13,10,26.70
2016,05,02,13,11,26.70
2016,05,02,13,12,26.70
2016,05,02,13,13,26.70
2016,05,02,13,14,26.70
2016,05,02,13,15,26.70
2016,05,02,13,16,26.70
2016,05,02,13,17,26.70
2016,05,02,13,18,26.70
2016,05,02,13,19,26.70
2016,05,02,13,20,26.80
2016,05,02,13,21,26.80
2016,05,02,13,22,26.80
2016,05,02,13,23,26.80
2016,05,02,13,24,26.90
2016,05,02,13,25,26.90
2016,05,02,13,26,26.90
2016,05,02,13,27,26.90
2016,05,02,13,28,27.00
2016,05,02,13,29,27.10
2016,05,02,13,30,27.10
2016,05,02,13,31,27.10
2016,05,02,13,32,27.10
2016,05,02,13,33,27.10
2016,05,02,13,34,27.10
2016,05,02,13,35,27.10
2016,05,02,13,36,27.00
2016,05,02,13,37,26.90
2016,05,02,13,38,26.80
2016,05,02,13,39,26.80
2016,05,02,13,40,26.80
2016,05,02,13,41,26.80
2016,05,02,13,42,26.80
2016,05,02,13,43,26.90
2016,05,02,13,44,26.80
2016,05,02,13,45,26.90
2016,05,02,13,46,26.80
2016,05,02,13,47,26.80
2016,05,02,13,48,26.80
2016,05,02,13,49,26.90
2016,05,02,13,50,27.00
2016,05,02,13,51,27.10
2016,05,02,13,52,27.20
2016,05,02,13,53,27.30
2016,05,02,13,54,27.30
2016,05,02,13,55,27.30
2016,05,02,13,56,27.30
2016,05,02,13,57,27.20
2016,05,02,13,58,27.20
2016,05,02,13,59,27.30
2016,05,02,14,00,27.30
2016,05,02,14,01,27.30
2016,05,02,14,02,27.30
2016,05,02,14,03,27.30
2016,05,02,14,04,27.30
2016,05,02,14,05,27.40
2016,05,02,14,06,27.40
2016,05,02,14,07,27.40
2016,05,02,14,08,27.40
2016,05,02,14,09,27.40
2016,05,02,14,10,27.40
2016,05,02,14,11,27.40
2016,05,02,14,12,27.30
2016,05,02,14,13,27.30
2016,05,02,14,14,27.30
2016,05,02,14,15,27.30
2016,05,02,14,16,27.30
2016,05,02,14,17,27.30
2016,05,02,14,18,27.30
2016,05,02,14,19,27.30
2016,05,02,14,20,27.30
2016,05,02,14,21,27.40
2016,05,02,14,22,27.60
2016,05,02,14,23,27.60
2016,05,02,14,24,27.60
2016,05,02,14,25,27.70
2016,05,02,14,26,27.70
2016,05,02,14,27,27.70
2016,05,02,14,28,27.60
2016,05,02,14,29,27.60
2016,05,02,14,30,27.60
2016,05,02,14,31,27.40
2016,05,02,14,32,27.40
2016,05,02,14,33,27.40
2016,05,02,14,34,27.50
2016,05,02,14,35,27.60
2016,05,02,14,36,27.60
2016,05,02,14,37,27.70
2016,05,02,14,38,27.80
2016,05,02,14,39,27.80
2016,05,02,14,40,27.90
2016,05,02,14,41,28.00
2016,05,02,14,42,28.00
2016,05,02,14,43,28.10
2016,05,02,14,44,28.10
2016,05,02,14,45,28.10
2016,05,02,14,46,28.10
2016,05,02,14,47,28.10
2016,05,02,14,48,28.10
2016,05,02,14,49,28.10
2016,05,02,14,50,28.00
2016,05,02,14,51,28.00
2016,05,02,14,52,28.00
2016,05,02,14,53,28.00
2016,05,02,14,54,28.00
2016,05,02,14,55,28.00
2016,05,02,14,56,28.00
2016,05,02,14,57,28.00
2016,05,02,14,58,28.00
2016,05,02,14,59,28.00
2016,05,02,15,00,28.00
2016,05,02,15,01,28.00
2016,05,02,15,02,28.00
2016,05,02,15,03,28.10
2016,05,02,15,04,28.10
2016,05,02,15,05,28.20
2016,05,02,15,06,28.30
2016,05,02,15,07,28.40
2016,05,02,15,08,28.40
2016,05,02,15,09,28.40
2016,05,02,15,10,28.50
2016,05,02,15,11,28.60
2016,05,02,15,12,28.50
2016,05,02,15,13,28.40
2016,05,02,15,14,28.40
2016,05,02,15,15,28.50
2016,05,02,15,16,28.60
2016,05,02,15,17,28.50
2016,05,02,15,18,28.40
2016,05,02,15,19,28.50
2016,05,02,15,20,28.60
2016,05,02,15,21,28.60
2016,05,02,15,22,28.70
2016,05,02,15,23,28.80
2016,05,02,15,24,28.90
2016,05,02,15,25,28.90
2016,05,02,15,26,28.90
2016,05,02,15,27,29.00
2016,05,02,15,28,29.10
2016,05,02,15,29,29.10
2016,05,02,15,30,29.10
2016,05,02,15,31,29.20
2016,05,02,15,32,29.20
2016,05,02,15,33,29.20
2016,05,02,15,34,29.20
2016,05,02,15,35,29.20
2016,05,02,15,36,29.20
2016,05,02,15,37,29.20
2016,05,02,15,38,29.20
2016,05,02,15,39,29.20
2016,05,02,15,40,29.10
2016,05,02,15,41,29.10
2016,05,02,15,42,29.10
2016,05,02,15,43,29.00
2016,05,02,15,44,28.90
2016,05,02,15,45,28.90
2016,05,02,15,46,28.90
2016,05,02,15,47,28.80
2016,05,02,15,48,28.70
2016,05,02,15,49,28.60
2016,05,02,15,50,28.50
2016,05,02,15,51,28.40
2016,05,02,15,52,28.30
2016,05,02,15,53,28.30
2016,05,02,15,54,28.30
2016,05,02,15,55,28.30
2016,05,02,15,56,28.30
2016,05,02,15,57,28.30
2016,05,02,15,58,28.30
2016,05,02,15,59,28.40
2016,05,02,16,00,28.50
2016,05,02,16,01,28.60
2016,05,02,16,02,28.70
2016,05,02,16,03,28.80
2016,05,02,16,04,28.90
2016,05,02,16,05,28.90
2016,05,02,16,06,28.90
2016,05,02,16,07,28.90
2016,05,02,16,08,28.90
2016,05,02,16,09,28.80
2016,05,02,16,10,28.70
2016,05,02,16,11,28.60
2016,05,02,16,12,28.50
2016,05,02,16,13,28.40
2016,05,02,16,14,28.30
2016,05,02,16,15,28.20
2016,05,02,16,16,28.10
2016,05,02,16,17,28.10
2016,05,02,16,18,28.10
2016,05,02,16,19,28.10
2016,05,02,16,20,28.10
2016,05,02,16,21,28.20
2016,05,02,16,22,28.30
2016,05,02,16,23,28.40
2016,05,02,16,24,28.50
2016,05,02,16,25,28.60
2016,05,02,16,26,28.60
2016,05,02,16,27,28.70
2016,05,02,16,28,28.70
2016,05,02,16,29,28.60
2016,05,02,16,30,28.60
2016,05,02,16,31,28.60
2016,05,02,16,32,28.60
2016,05,02,16,33,28.40
2016,05,02,16,34,28.40
2016,05,02,16,35,28.30
2016,05,02,16,36,28.20
2016,05,02,16,37,28.10
2016,05,02,16,38,27.90
2016,05,02,16,39,27.80
2016,05,02,16,40,27.70
2016,05,02,16,41,27.70
2016,05,02,16,42,27.70
2016,05,02,16,43,27.70
2016,05,02,16,44,27.60
2016,05,02,16,45,27.60
2016,05,02,16,46,27.60
2016,05,02,16,47,27.50
2016,05,02,16,48,27.40
2016,05,02,16,49,27.30
2016,05,02,16,50,27.30
2016,05,02,16,51,27.30
2016,05,02,16,52,27.20
2016,05,02,16,53,27.20
2016,05,02,16,54,27.20
2016,05,02,16,55,27.20
2016,05,02,16,56,27.20
2016,05,02,16,57,27.20
2016,05,02,16,58,27.20
2016,05,02,16,59,27.20
2016,05,02,17,00,27.20
2016,05,02,17,01,27.30
2016,05,02,17,02,27.20
2016,05,02,17,03,26.80
2016,05,02,17,04,26.30
2016,05,02,17,05,25.80
2016,05,02,17,06,25.30
2016,05,02,17,07,24.80
2016,05,02,17,08,24.30
2016,05,02,17,09,23.80
2016,05,02,17,10,23.40
2016,05,02,17,11,23.10
2016,05,02,17,12,22.90
2016,05,02,17,13,22.90
2016,05,02,17,14,22.90
2016,05,02,17,15,22.90
2016,05,02,17,16,22.90
2016,05,02,17,17,22.90
2016,05,02,17,18,22.90
2016,05,02,17,19,23.00
2016,05,02,17,20,23.20
2016,05,02,17,21,23.30